EW8546 Blue Point NY US current weather conditions

sailwx.info

Wind from 221

Air temperature 20.0° C
Dewpoint -37.8° C

Last reported at 2020-Jul-05 03:01 UTC.
Time now 2020-Jul-05 03:21 UTC

Location: N 40°45' W 073°03'.
View on Google Maps.

See reports from other nearby stations

  
Tides and Currents Weather Stations Pressure Air Temp Water Temp Dewpoint Dewpoint Depression Visibility Wind Speed Wind Dir Waves Ship Positions
date/time (UTC)wind fromknots sea level pressurealtimeterstation pressurevisibilityair tempwater tempwave heightnotes
2020-Jul-05 03:01 221 20.0
2020-Jul-05 02:46 238 20.0
2020-Jul-05 02:31 246 20.0
2020-Jul-05 02:15 213 20.0
2020-Jul-05 02:00 243 20.0
2020-Jul-05 01:00 253 20.6
2020-Jul-05 00:46 197 21.1
2020-Jul-05 00:30 197 21.1
2020-Jul-05 00:15 211 21.7
2020-Jul-05 00:00 264 0 gusting 3 22.2
2020-Jul-04 23:49 238 22.8
2020-Jul-04 23:31 277 22.8
2020-Jul-04 23:16 210 2 gusting 5 23.3
2020-Jul-04 23:01 131 23.3
2020-Jul-04 22:45 200 23.3
2020-Jul-04 22:31 164 1 gusting 5 23.3
2020-Jul-04 22:16 226 0 gusting 4 23.3
2020-Jul-04 22:01 194 0 gusting 5 23.3
2020-Jul-04 21:45 257 3 gusting 6 23.3
2020-Jul-04 21:30 100 23.9
2020-Jul-04 21:15 150 1 gusting 6 24.4
2020-Jul-04 21:00 138 24.4
2020-Jul-04 20:45 176 0 gusting 6 24.4
2020-Jul-04 20:30 143 24.4
2020-Jul-04 20:17 131 0 gusting 4 24.4
2020-Jul-04 20:02 143 23.9
2020-Jul-04 19:46 236 24.4
2020-Jul-04 19:31 098 23.9
2020-Jul-04 19:15 214 1 gusting 8 24.4
2020-Jul-04 19:00 181 24.4
2020-Jul-04 18:45 245 25.0
2020-Jul-04 18:31 212 0 gusting 4 25.0
2020-Jul-04 18:15 117 25.0
2020-Jul-04 18:00 194 1 gusting 6 25.0
2020-Jul-04 17:46 134 26.1
2020-Jul-04 17:30 136 0 gusting 6 26.1
2020-Jul-04 17:15 074 0 gusting 5 26.1
2020-Jul-04 17:00 005 1 gusting 7 26.1
2020-Jul-04 16:45 081 25.0
2020-Jul-04 16:32 117 2 gusting 6 25.6
2020-Jul-04 16:17 051 1 gusting 5 25.0
2020-Jul-04 16:01 075 0 gusting 5 25.0
2020-Jul-04 15:46 038 1 gusting 5 24.4
2020-Jul-04 15:31 107 24.4
2020-Jul-04 15:16 004 23.9
2020-Jul-04 15:01 102 0 gusting 5 23.3
2020-Jul-04 14:46 131 0 gusting 4 23.3
2020-Jul-04 14:31 084 1 gusting 4 22.8
2020-Jul-04 14:16 037 2 gusting 5 22.8
2020-Jul-04 14:00 001 0 gusting 4 22.8
2020-Jul-04 13:45 345 0 gusting 6 22.2
2020-Jul-04 13:30 094 0 gusting 4 22.2
2020-Jul-04 13:15 034 0 gusting 6 21.1
2020-Jul-04 13:00 095 21.1
2020-Jul-04 12:45 100 0 gusting 6 20.0
2020-Jul-04 12:31 086 19.4
2020-Jul-04 12:16 072 18.9
2020-Jul-04 11:46 039 18.9
2020-Jul-04 11:31 036 18.9
2020-Jul-04 11:15 089 0 gusting 7 18.3
2020-Jul-04 10:46 044 18.3
2020-Jul-04 10:30
2020-Jul-04 10:15
2020-Jul-04 09:45
2020-Jul-04 09:30
2020-Jul-04 09:15 044 18.9
2020-Jul-04 08:45 094 18.3
2020-Jul-04 08:30 049 18.3
2020-Jul-04 08:16 352 18.3
2020-Jul-04 07:46 351 18.9
2020-Jul-04 07:31 001 18.9
2020-Jul-04 07:17 009 18.9
2020-Jul-04 06:46 108 18.9
2020-Jul-04 06:31 094 18.9
2020-Jul-04 06:15 084 18.9
2020-Jul-04 05:45 086 18.9
2020-Jul-04 05:30 020 18.9
2020-Jul-04 05:15 359 18.9
2020-Jul-04 04:46 113 18.9
2020-Jul-04 04:32 096 18.9
2020-Jul-04 04:16 100 18.9
2020-Jul-04 03:46 098 20.0
2020-Jul-04 03:31 094 20.0
2020-Jul-04 03:16 084 20.0
2020-Jul-04 02:45 092 20.0
2020-Jul-04 02:30 095 20.0
2020-Jul-04 02:15 114 0 gusting 2 20.0
2020-Jul-04 01:45 093 20.0
2020-Jul-04 01:17 108 1 gusting 6 20.0
2020-Jul-04 00:46 103 1 gusting 6 20.0
2020-Jul-04 00:31 089 1 gusting 5 20.0
2020-Jul-04 00:16 086 20.6
2020-Jul-03 23:46 089 3 gusting 5 21.1
2020-Jul-03 23:30 086 2 21.1
2020-Jul-03 23:15 128 1 gusting 9 21.7
2020-Jul-03 22:45 165 2 gusting 7 21.7
2020-Jul-03 22:30 080 3 gusting 8 21.7
2020-Jul-03 22:15 117 2 gusting 9 22.2
2020-Jul-03 21:45 068 2 gusting 7 22.8
2020-Jul-03 21:31 103 2 gusting 9 22.8
2020-Jul-03 21:16 207 2 gusting 7 22.8
2020-Jul-03 21:01 107 1 gusting 6 22.8
2020-Jul-03 20:46 091 1 gusting 6 22.8
2020-Jul-03 20:31 122 1 gusting 9 22.8
2020-Jul-03 20:16 119 4 gusting 10 23.3
2020-Jul-03 20:00 095 4 gusting 14 24.4
2020-Jul-03 19:46 103 6 gusting 12 25.0
2020-Jul-03 19:30 122 6 gusting 9 26.7
2020-Jul-03 19:15 236 28.9
2020-Jul-03 19:00 250 0 gusting 4 29.4
2020-Jul-03 18:45 200 0 gusting 3 30.6
2020-Jul-03 18:30 280 31.1
2020-Jul-03 18:15 023 30.6
2020-Jul-03 18:04 134 30.0
2020-Jul-03 17:46 117 29.4
2020-Jul-03 17:31 015 28.3
2020-Jul-03 17:16 355 28.3
2020-Jul-03 17:01 342 2 gusting 6 27.8
2020-Jul-03 16:45 352 0 gusting 5 27.8
2020-Jul-03 16:31 045 3 gusting 7 27.8
2020-Jul-03 16:15 342 0 gusting 5 28.3
2020-Jul-03 16:00 089 27.8
2020-Jul-03 15:46 006 27.8
2020-Jul-03 15:30 018 27.8
2020-Jul-03 15:15 349 0 gusting 3 27.8
2020-Jul-03 15:00 089 28.3
2020-Jul-03 14:45 037 28.3
2020-Jul-03 14:30 030 27.8
2020-Jul-03 14:16 020 0 gusting 3 27.8
2020-Jul-03 14:01 358 0 gusting 4 27.8
2020-Jul-03 13:46 013 0 gusting 4 27.2
2020-Jul-03 13:31 046 26.7
2020-Jul-03 13:15 039 1 gusting 6 26.7
2020-Jul-03 13:01 008 26.7
2020-Jul-03 12:46 036 26.1
2020-Jul-03 12:31 360 2 gusting 6 26.1
2020-Jul-03 12:16 352 1 gusting 8 26.1
2020-Jul-03 12:00 005 3 gusting 9 25.6
2020-Jul-03 11:45 006 1 gusting 6 25.0
2020-Jul-03 11:30 349 2 gusting 5 25.0
2020-Jul-03 11:15 001 2 gusting 6 24.4
2020-Jul-03 11:00 343 2 gusting 5 24.4
2020-Jul-03 10:31 049 1 gusting 4 23.9
2020-Jul-03 10:16 343 1 gusting 6 23.9
2020-Jul-03 10:01 008 1 gusting 5 23.9
2020-Jul-03 09:47 006 3 gusting 6 23.9
2020-Jul-03 09:32 030 1 gusting 4 23.9
2020-Jul-03 09:15 338 1 gusting 5 24.4
2020-Jul-03 09:01 353 1 gusting 6 24.4
2020-Jul-03 08:46 025 2 gusting 5 24.4
2020-Jul-03 08:30 358 1 gusting 6 24.4
2020-Jul-03 08:15 347 2 gusting 6 24.4
2020-Jul-03 08:00 357 2 gusting 4 24.4
2020-Jul-03 07:45 023 2 gusting 5 24.4
2020-Jul-03 07:30 018 1 gusting 4 24.4
2020-Jul-03 07:15 006 1 gusting 4 24.4
2020-Jul-03 07:03 032 0 gusting 4 23.9
2020-Jul-03 06:46 004 0 gusting 4 23.9
2020-Jul-03 06:31 356 1 gusting 4 23.9
2020-Jul-03 06:16 330 0 gusting 4 23.9
2020-Jul-03 06:01 349 0 gusting 4 23.3
2020-Jul-03 05:46 022 1 gusting 4 23.3
2020-Jul-03 05:31 336 22.8
2020-Jul-03 05:15
2020-Jul-03 05:01 309 22.2
2020-Jul-03 04:45 309 22.2
2020-Jul-03 04:31 309 22.2
2020-Jul-03 04:16 309 22.8
2020-Jul-03 04:00 309 22.8
2020-Jul-03 03:45 309 22.8
2020-Jul-03 03:30 309 23.3
2020-Jul-03 03:15 309 23.3
2020-Jul-03 03:00 309 23.3